[[{"header":{"parameterUnit":"m.s-1","parameterCategory":1,"la1":30.2991,"la2":30.254,"lo1":-89.0895,"lo2":-89.0444,"dy":0.0017,"dx":0.0017,"nx":28,"ny":28,"refTime":"2025-02-12T03:00:00:Z","depth":0,"parameterNumber":2,"parameterNumberName":"U-component_of_WINDS"},"data":[0,0,0,0,0,0,0,0,0,0,0,0,0,0,0,0,0,0,0,0,0,0,0,0,0,0,0,0,0,0,0,0,0,0,0,0,0,0,0,0,0,0,0,0,0,0,0,0,0,0,0,0,0,0,0,0,0,0,-0.2736,-0.2736,0,-0.2726,-0.2726,-0.2726,-0.2758,-0.2759,-0.276,-0.276,-0.2749,-0.2748,-0.2747,0,0,0,0,0,0,0,0,0,0,0,0,0,-0.2782,-0.2781,-0.2736,-0.2736,-0.2736,-0.2726,-0.2726,-0.2726,-0.2757,-0.2759,-0.276,-0.2761,-0.275,-0.2748,-0.2747,0,0,0,0,0,0,0,0,0,0,0,0,0,-0.2766,-0.2781,-0.2736,-0.2751,-0.2752,-0.2726,-0.2726,-0.2726,-0.2757,-0.2759,-0.276,-0.2761,-0.275,-0.2748,-0.2747,-0.2706,0,0,-0.2741,-0.274,0,0,0,0,0,0,0,0,-0.2767,-0.2764,-0.2749,-0.275,-0.2751,-0.2745,-0.2738,-0.2719,-0.2757,-0.2755,-0.276,-0.2762,-0.2747,-0.2745,-0.274,-0.2706,-0.2705,-0.2741,-0.274,-0.2739,-0.2739,0,0,0,0,0,0,0,-0.2768,-0.2765,-0.2732,-0.2748,-0.275,-0.2757,-0.2757,-0.2735,-0.2743,-0.2755,-0.2758,-0.2756,-0.2747,-0.2742,-0.274,-0.2705,-0.2741,-0.2739,-0.2738,-0.2738,-0.2636,-0.2634,0,0,0,0,0,0,-0.2767,-0.2766,-0.2733,-0.2732,-0.2763,-0.2755,-0.2754,-0.2745,-0.2743,-0.2744,-0.2755,-0.2758,-0.2744,-0.2742,-0.274,-0.2691,-0.2739,-0.2737,-0.2736,-0.2637,-0.2635,-0.2634,0,0,0,0,0,0,-0.2768,-0.2764,-0.2733,-0.2749,-0.2746,-0.2753,-0.2742,-0.2744,-0.2738,-0.2743,-0.2744,-0.2747,-0.2745,-0.2742,-0.2714,-0.2691,-0.2737,-0.2735,-0.2639,-0.2637,-0.2634,-0.2594,0,0,0,0,0,0,-0.2769,-0.2764,-0.2749,-0.2749,-0.2745,-0.2708,-0.2741,-0.2743,-0.2735,-0.2739,-0.2736,-0.2737,-0.2746,-0.2717,-0.2712,-0.2689,-0.2734,-0.2641,-0.2638,-0.2635,-0.2597,-0.259,-0.2585,0,0,0,0,0,-0.2771,-0.2739,-0.2748,-0.2744,-0.2727,-0.2706,-0.2704,-0.2715,-0.2733,-0.2718,-0.2721,-0.2737,-0.2695,-0.2713,-0.2709,-0.2685,-0.2643,-0.2639,-0.2635,-0.26,-0.2592,-0.2585,0,0,0,0,0,0,-0.2737,-0.2739,-0.275,-0.2717,-0.2711,-0.2712,-0.2693,-0.2706,-0.2695,-0.2699,-0.2713,-0.2712,-0.2681,-0.2681,-0.2702,-0.2645,-0.2672,-0.2667,-0.2646,-0.2638,-0.2632,-0.2632,-0.2732,0,0,0,0,0,-0.2725,-0.2709,-0.2712,-0.2682,-0.2679,-0.2686,-0.2678,-0.2687,-0.2682,-0.2679,-0.268,-0.2674,-0.2659,-0.2649,-0.2636,-0.2598,-0.2597,-0.2579,-0.2573,-0.2567,-0.2563,-0.2541,-0.2533,-0.2622,-0.2622,-0.2622,0,0,-0.2702,-0.2701,-0.269,-0.2675,-0.2672,-0.2654,-0.2684,-0.2664,-0.2651,-0.2676,-0.2649,-0.2649,-0.2644,-0.261,-0.2595,-0.2608,-0.2538,-0.2563,-0.2558,-0.2557,-0.2536,-0.2528,-0.252,-0.2619,-0.2619,-0.262,0,0,-0.2649,-0.2647,-0.2621,-0.2617,-0.2612,-0.2617,-0.261,-0.2609,-0.261,-0.2583,-0.2601,-0.2585,-0.256,-0.2554,-0.2548,-0.2492,-0.2506,-0.2487,-0.2453,-0.2432,-0.2425,-0.2419,-0.2397,-0.2389,-0.2483,-0.2483,-0.2483,0,-0.262,-0.2594,-0.2607,-0.2585,-0.2577,-0.2599,-0.2573,-0.2568,-0.2558,-0.2552,-0.2568,-0.2535,-0.2533,-0.2497,-0.2483,-0.2478,-0.2471,-0.2487,-0.2425,-0.2419,-0.2413,-0.2393,-0.2385,-0.248,-0.2481,-0.2481,-0.2481,0,-0.2558,-0.2539,-0.2519,-0.2509,-0.2499,-0.2475,-0.2483,-0.2472,-0.2481,-0.2484,-0.2456,-0.2454,-0.244,-0.2432,-0.2442,-0.2397,-0.2406,-0.2423,-0.2449,-0.2402,-0.2383,-0.2375,-0.2477,-0.2478,-0.2479,-0.2479,0,0,-0.2484,-0.2479,-0.2472,-0.2466,-0.2461,-0.2447,-0.2423,-0.2409,-0.2398,-0.2391,-0.2371,-0.2348,-0.2363,-0.2356,-0.2365,-0.2346,-0.23,-0.2366,-0.2366,-0.2352,-0.2249,-0.2235,-0.2226,-0.231,-0.2308,-0.2307,-0.2249,0,-0.2431,-0.239,-0.24,-0.236,-0.2342,-0.2362,-0.2341,-0.2335,-0.2337,-0.2322,-0.2324,-0.2307,-0.233,-0.2325,-0.2308,-0.2309,-0.2279,-0.2314,-0.229,-0.2289,-0.2289,-0.2216,-0.2202,-0.2147,-0.2242,-0.2241,-0.224,0,-0.2364,-0.2352,-0.231,-0.2306,-0.2299,-0.228,-0.2267,-0.2252,-0.2246,-0.2248,-0.224,-0.2252,-0.2228,-0.2255,-0.2221,-0.2245,-0.2236,-0.2235,-0.2233,-0.223,-0.226,-0.221,-0.213,-0.2121,-0.2228,-0.2229,-0.223,0,-0.2312,-0.2286,-0.2257,-0.2252,-0.2247,-0.2233,-0.223,-0.2225,-0.2215,-0.2204,-0.2198,-0.2184,-0.2176,-0.2164,-0.2172,-0.2192,-0.2136,-0.2165,-0.2137,-0.2136,-0.2123,-0.2124,-0.2039,-0.212,-0.212,-0.212,-0.212,0,-0.2251,-0.2224,-0.2233,-0.2215,-0.2185,-0.2196,-0.2166,-0.2165,-0.216,-0.2142,-0.2159,-0.2141,-0.2153,-0.2136,-0.2142,-0.2112,-0.2109,-0.2109,-0.2111,-0.2107,-0.2107,-0.21,-0.2104,-0.2118,-0.2118,-0.2119,-0.2119,0,-0.2188,-0.2193,-0.2162,-0.216,-0.2158,-0.2136,-0.2134,-0.2116,-0.2119,-0.2096,-0.2091,-0.2095,-0.2076,-0.2082,-0.2062,-0.2066,-0.2027,-0.2035,-0.2029,-0.2031,-0.2001,-0.2004,-0.1909,-0.1897,-0.1986,-0.1985,-0.1984,0,-0.2148,-0.2127,-0.2122,-0.2111,-0.2106,-0.2088,-0.2078,-0.2088,-0.2077,-0.2066,-0.205,-0.2032,-0.2018,-0.1986,-0.1988,-0.1972,-0.1978,-0.1946,-0.1976,-0.1972,-0.1975,-0.1976,-0.1973,-0.194,-0.1938,-0.1938,-0.1937,0,-0.2076,-0.208,-0.2064,-0.2049,-0.2036,-0.2025,-0.2015,-0.2005,-0.2014,-0.2,-0.1981,-0.197,-0.1948,-0.193,-0.1915,-0.1912,-0.1925,-0.1928,-0.192,-0.1915,-0.1912,-0.1912,-0.2012,-0.193,-0.193,-0.1931,-0.1931,-0.1932,-0.2023,-0.2005,-0.1997,-0.1979,-0.1973,-0.1963,-0.1946,-0.1946,-0.1929,-0.1912,-0.1919,-0.1896,-0.1888,-0.187,-0.1865,-0.1846,-0.1858,-0.1848,-0.1845,-0.1842,-0.1837,-0.1916,-0.1844,-0.1844,-0.1844,-0.1844,-0.1844,0,-0.1951,-0.1947,-0.193,-0.1915,-0.19,-0.1914,-0.1903,-0.189,-0.1869,-0.1861,-0.1846,-0.1823,-0.1804,-0.1804,-0.1786,-0.1772,-0.1777,-0.1767,-0.1767,-0.1766,-0.1828,-0.1836,-0.1762,-0.1762,-0.1762,-0.1762,-0.1762,-0.1762,-0.1912,-0.1881,-0.1883,-0.1849,-0.1845,-0.1822,-0.1814,-0.1805,-0.1798,-0.177,-0.1755,-0.1754,-0.1749,-0.1731,-0.1714,-0.1715,-0.1707,-0.1693,-0.1696,-0.1754,-0.1762,-0.1769,-0.1777,-0.1692,-0.1692,-0.1635,-0.1634,-0.1634]},{"header":{"parameterUnit":"m.s-1","parameterCategory":1,"la1":30.2991,"la2":30.254,"lo1":-89.0895,"lo2":-89.0444,"dy":0.0017,"dx":0.0017,"nx":28,"ny":28,"refTime":"2025-02-12T03:00:00:Z","depth":0,"parameterNumber":3,"parameterNumberName":"V-component_of_WINDS"},"data":[0,0,0,0,0,0,0,0,0,0,0,0,0,0,0,0,0,0,0,0,0,0,0,0,0,0,0,0,0,0,0,0,0,0,0,0,0,0,0,0,0,0,0,0,0,0,0,0,0,0,0,0,0,0,0,0,0,0,4.4075,4.4078,0,4.4366,4.4369,4.4373,4.4426,4.4424,4.4422,4.4419,4.4721,4.4731,4.4741,0,0,0,0,0,0,0,0,0,0,0,0,0,4.357,4.3579,4.4075,4.4078,4.4082,4.4365,4.4369,4.4373,4.4427,4.4424,4.4421,4.4418,4.4718,4.473,4.4742,0,0,0,0,0,0,0,0,0,0,0,0,0,4.3818,4.3581,4.4074,4.4143,4.4152,4.4365,4.437,4.4375,4.4427,4.4424,4.442,4.4417,4.4714,4.4728,4.4744,4.491,0,0,4.4791,4.4797,0,0,0,0,0,0,0,0,4.3803,4.3836,4.4129,4.4138,4.4149,4.4356,4.4302,4.4554,4.4428,4.4323,4.4419,4.4415,4.4603,4.4627,4.4689,4.4924,4.4937,4.4792,4.4801,4.4808,4.4812,0,0,0,0,0,0,0,4.3786,4.3824,4.419,4.4133,4.4145,4.4161,4.4192,4.435,4.4479,4.4332,4.4336,4.437,4.4607,4.4674,4.4697,4.4941,4.4791,4.4805,4.4815,4.4821,4.5329,4.5333,0,0,0,0,0,0,4.3756,4.3809,4.4181,4.4199,4.3964,4.4172,4.4208,4.4293,4.4478,4.4502,4.4373,4.4371,4.465,4.4679,4.4708,4.4916,4.4808,4.4822,4.4831,4.5325,4.533,4.5335,0,0,0,0,0,0,4.3745,4.3789,4.4169,4.4006,4.4055,4.4185,4.4281,4.4301,4.4368,4.4509,4.4532,4.4417,4.4648,4.4686,4.4859,4.4927,4.4829,4.4843,4.532,4.5327,4.5333,4.5332,0,0,0,0,0,0,4.373,4.3785,4.3848,4.4006,4.4063,4.4314,4.4285,4.4309,4.4394,4.4395,4.4557,4.458,4.4648,4.4836,4.4875,4.4946,4.4855,4.5314,4.5323,4.5331,4.5326,4.5337,4.5347,0,0,0,0,0,4.3712,4.3836,4.385,4.3895,4.4145,4.4318,4.4351,4.4426,4.4399,4.4464,4.4555,4.4575,4.4913,4.4853,4.4897,4.4974,4.5311,4.5321,4.533,4.5322,4.5335,4.5347,0,0,0,0,0,0,4.3682,4.3858,4.3876,4.4054,4.4171,4.4326,4.4411,4.4438,4.4565,4.456,4.465,4.4686,4.4855,4.4932,4.4862,4.5146,4.511,4.5129,4.5089,4.5103,4.5113,4.5091,4.4868,0,0,0,0,0,4.3696,4.382,4.3968,4.4111,4.4169,4.428,4.4358,4.4406,4.4531,4.4581,4.4684,4.4805,4.4939,4.5026,4.5157,4.5338,4.5375,4.5413,4.5423,4.5431,4.5446,4.5551,4.557,4.5367,4.5367,4.5366,0,0,4.3726,4.3838,4.3911,4.4108,4.4204,4.4333,4.4321,4.4457,4.4554,4.4602,4.4771,4.4852,4.4994,4.5172,4.5256,4.5242,4.5511,4.5443,4.5448,4.546,4.5563,4.5582,4.5599,4.5373,4.5372,4.5371,0,0,4.3847,4.3943,4.4074,4.4171,4.4316,4.439,4.4421,4.4574,4.4629,4.4801,4.484,4.4958,4.5186,4.5286,4.5366,4.5528,4.5552,4.5569,4.5622,4.5723,4.5739,4.5753,4.5812,4.5832,4.5583,4.5584,4.5584,0,4.3866,4.406,4.4138,4.4273,4.436,4.4409,4.4543,4.4634,4.4815,4.4874,4.4856,4.5145,4.5244,4.5447,4.5487,4.555,4.5591,4.555,4.573,4.5745,4.576,4.5818,4.584,4.5585,4.5585,4.5584,4.5584,0,4.4078,4.4212,4.4301,4.4474,4.4571,4.4704,4.4804,4.4893,4.4934,4.501,4.5186,4.5307,4.5464,4.5516,4.5557,4.5727,4.5714,4.5711,4.5677,4.5779,4.5835,4.5858,4.5586,4.5586,4.5586,4.5585,0,0,4.4186,4.4402,4.4433,4.4513,4.4678,4.4785,4.4922,4.5075,4.5151,4.5275,4.5394,4.5587,4.5587,4.5678,4.5732,4.582,4.5943,4.5808,4.5812,4.5829,4.614,4.614,4.6164,4.5959,4.5964,4.5967,4.6128,0,4.4327,4.4572,4.4647,4.4854,4.498,4.503,4.515,4.5266,4.5341,4.5461,4.5545,4.5681,4.567,4.5726,4.5815,4.5908,4.6006,4.5898,4.6073,4.6078,4.6035,4.6193,4.6194,4.6339,4.615,4.6154,4.6157,0,4.4523,4.4651,4.4869,4.5021,4.5077,4.5183,4.5331,4.5444,4.5577,4.5626,4.573,4.5776,4.5924,4.5882,4.6088,4.6013,4.609,4.6146,4.6154,4.6173,4.6123,4.6217,4.6388,4.6409,4.6191,4.6189,4.6186,0,4.4581,4.4808,4.4968,4.5035,4.5216,4.529,4.5369,4.5498,4.5586,4.5716,4.5775,4.592,4.6,4.6113,4.6199,4.616,4.6399,4.6363,4.6445,4.6443,4.6493,4.6489,4.6678,4.6541,4.6541,4.654,4.654,0,4.4731,4.4863,4.4997,4.5096,4.5246,4.5333,4.548,4.5562,4.5677,4.5794,4.5847,4.5956,4.6062,4.6187,4.6255,4.6417,4.6452,4.6497,4.6514,4.6493,4.6487,4.6544,4.6537,4.6546,4.6545,4.6544,4.6543,0,4.4821,4.4915,4.5094,4.5251,4.5293,4.5397,4.5533,4.5632,4.571,4.5858,4.5898,4.6021,4.617,4.6267,4.6457,4.6503,4.6681,4.6694,4.6635,4.6643,4.6721,4.6712,4.6954,4.6991,4.6827,4.6829,4.683,0,4.491,4.5013,4.5181,4.5263,4.5342,4.5473,4.5563,4.5654,4.5746,4.5907,4.5988,4.614,4.6266,4.6503,4.6611,4.6758,4.6776,4.685,4.6798,4.6775,4.6779,4.6772,4.6783,4.6859,4.686,4.6861,4.6862,0,4.5058,4.5101,4.5228,4.5374,4.548,4.5599,4.5718,4.5783,4.5894,4.5996,4.6148,4.6247,4.6441,4.6593,4.675,4.6834,4.6868,4.6878,4.6905,4.6884,4.6847,4.687,4.6659,4.6872,4.6871,4.687,4.6869,4.6869,4.5152,4.5246,4.538,4.5521,4.562,4.5731,4.5832,4.5924,4.6052,4.6217,4.6264,4.6424,4.6558,4.6772,4.6859,4.6987,4.6978,4.7017,4.7027,4.7035,4.7037,4.6826,4.7016,4.7015,4.7015,4.7015,4.7015,0,4.5304,4.5393,4.5522,4.5687,4.5799,4.582,4.5954,4.6047,4.6187,4.6308,4.6432,4.6609,4.6757,4.6878,4.7031,4.7111,4.713,4.7148,4.7143,4.7163,4.7035,4.6997,4.713,4.713,4.713,4.7129,4.7129,4.7129,4.5396,4.5558,4.5617,4.583,4.5918,4.6075,4.615,4.6253,4.6351,4.6546,4.6669,4.6746,4.6868,4.7031,4.7169,4.7201,4.7256,4.727,4.7306,4.7184,4.7171,4.7159,4.7124,4.7281,4.7281,4.7423,4.7424,4.7425]}]]